Stromnetz Berlin GmbH;;
Einspeisungen Mittelspannung;;
2022;;
;;
Max in kW;;66.396
Arbeit in kWh;;278.189.938
;;
;;
Datum;Zeit;Wert
01.01.2022;00:15;33.745
01.01.2022;00:30;34.271
01.01.2022;00:45;34.077
01.01.2022;01:00;33.739
01.01.2022;01:15;31.828
01.01.2022;01:30;31.962
01.01.2022;01:45;30.663
01.01.2022;02:00;31.452
01.01.2022;02:15;32.240
01.01.2022;02:30;33.091
01.01.2022;02:45;33.534
01.01.2022;03:00;33.982
01.01.2022;03:15;33.842
01.01.2022;03:30;33.105
01.01.2022;03:45;34.522
01.01.2022;04:00;35.579
01.01.2022;04:15;33.978
01.01.2022;04:30;33.633
01.01.2022;04:45;32.861
01.01.2022;05:00;30.360
01.01.2022;05:15;30.851
01.01.2022;05:30;31.763
01.01.2022;05:45;30.634
01.01.2022;06:00;31.123
01.01.2022;06:15;28.742
01.01.2022;06:30;29.665
01.01.2022;06:45;30.896
01.01.2022;07:00;29.914
01.01.2022;07:15;33.473
01.01.2022;07:30;34.262
01.01.2022;07:45;34.052
01.01.2022;08:00;33.251
01.01.2022;08:15;34.897
01.01.2022;08:30;35.645
01.01.2022;08:45;34.998
01.01.2022;09:00;35.586
01.01.2022;09:15;32.494
01.01.2022;09:30;33.921
01.01.2022;09:45;36.345
01.01.2022;10:00;36.485
01.01.2022;10:15;37.075
01.01.2022;10:30;37.300
01.01.2022;10:45;37.897
01.01.2022;11:00;38.833
01.01.2022;11:15;37.467
01.01.2022;11:30;37.595
01.01.2022;11:45;37.294
01.01.2022;12:00;38.184
01.01.2022;12:15;36.382
01.01.2022;12:30;36.074
01.01.2022;12:45;36.346
01.01.2022;13:00;36.012
01.01.2022;13:15;34.715
01.01.2022;13:30;34.134
01.01.2022;13:45;32.614
01.01.2022;14:00;32.466
01.01.2022;14:15;32.480
01.01.2022;14:30;32.978
01.01.2022;14:45;32.447
01.01.2022;15:00;32.594
01.01.2022;15:15;32.490
01.01.2022;15:30;32.677
01.01.2022;15:45;32.372
01.01.2022;16:00;32.214
01.01.2022;16:15;32.049
01.01.2022;16:30;31.578
01.01.2022;16:45;32.055
01.01.2022;17:00;33.176
01.01.2022;17:15;32.902
01.01.2022;17:30;33.122
01.01.2022;17:45;33.888
01.01.2022;18:00;34.532
01.01.2022;18:15;33.196
01.01.2022;18:30;32.662
01.01.2022;18:45;32.077
01.01.2022;19:00;32.164
01.01.2022;19:15;31.702
01.01.2022;19:30;32.351
01.01.2022;19:45;32.287
01.01.2022;20:00;32.379
01.01.2022;20:15;30.653
01.01.2022;20:30;29.558
01.01.2022;20:45;29.590
01.01.2022;21:00;29.288
01.01.2022;21:15;30.281
01.01.2022;21:30;29.500
01.01.2022;21:45;29.386
01.01.2022;22:00;29.347
01.01.2022;22:15;29.795
01.01.2022;22:30;29.240
01.01.2022;22:45;29.923
01.01.2022;23:00;31.682
01.01.2022;23:15;33.896
01.01.2022;23:30;33.580
01.01.2022;23:45;33.537
02.01.2022;00:00;32.630
02.01.2022;00:15;33.397
02.01.2022;00:30;27.952
02.01.2022;00:45;29.311
02.01.2022;01:00;31.177
02.01.2022;01:15;34.519
02.01.2022;01:30;33.502
02.01.2022;01:45;30.374
02.01.2022;02:00;33.978
02.01.2022;02:15;32.615
02.01.2022;02:30;33.139
02.01.2022;02:45;33.923
02.01.2022;03:00;34.473
02.01.2022;03:15;33.239
02.01.2022;03:30;31.798
02.01.2022;03:45;32.608
02.01.2022;04:00;33.608
02.01.2022;04:15;33.587
02.01.2022;04:30;32.067
02.01.2022;04:45;32.613
02.01.2022;05:00;32.339
02.01.2022;05:15;32.126
02.01.2022;05:30;30.976
02.01.2022;05:45;30.967
02.01.2022;06:00;31.751
02.01.2022;06:15;30.499
02.01.2022;06:30;30.098
02.01.2022;06:45;30.456
02.01.2022;07:00;31.312
02.01.2022;07:15;31.077
02.01.2022;07:30;31.204
02.01.2022;07:45;31.788
02.01.2022;08:00;31.717
02.01.2022;08:15;33.396
02.01.2022;08:30;34.776
02.01.2022;08:45;34.615
02.01.2022;09:00;36.408
02.01.2022;09:15;37.328
02.01.2022;09:30;39.474
02.01.2022;09:45;39.626
02.01.2022;10:00;38.677
02.01.2022;10:15;38.128
02.01.2022;10:30;37.616
02.01.2022;10:45;37.837
02.01.2022;11:00;38.390
02.01.2022;11:15;39.595
02.01.2022;11:30;37.537
02.01.2022;11:45;36.763
02.01.2022;12:00;36.743
02.01.2022;12:15;36.245
02.01.2022;12:30;35.299
02.01.2022;12:45;36.356
02.01.2022;13:00;36.111
02.01.2022;13:15;37.326
02.01.2022;13:30;38.085
02.01.2022;13:45;38.235
02.01.2022;14:00;39.695
02.01.2022;14:15;41.894
02.01.2022;14:30;41.331
02.01.2022;14:45;41.906
02.01.2022;15:00;41.688
02.01.2022;15:15;39.582
02.01.2022;15:30;36.996
02.01.2022;15:45;39.826
02.01.2022;16:00;39.186
02.01.2022;16:15;39.628
02.01.2022;16:30;41.931
02.01.2022;16:45;40.994
02.01.2022;17:00;42.467
02.01.2022;17:15;42.057
02.01.2022;17:30;41.820
02.01.2022;17:45;42.121
02.01.2022;18:00;42.463
02.01.2022;18:15;42.098
02.01.2022;18:30;42.604
02.01.2022;18:45;43.689
02.01.2022;19:00;43.605
02.01.2022;19:15;42.809
02.01.2022;19:30;42.542
02.01.2022;19:45;42.568
02.01.2022;20:00;42.976
02.01.2022;20:15;40.498
02.01.2022;20:30;40.024
02.01.2022;20:45;39.743
02.01.2022;21:00;39.862
02.01.2022;21:15;40.455
02.01.2022;21:30;39.621
02.01.2022;21:45;36.831
02.01.2022;22:00;33.759
02.01.2022;22:15;34.142
02.01.2022;22:30;33.984
02.01.2022;22:45;34.921
02.01.2022;23:00;34.968
02.01.2022;23:15;33.687
02.01.2022;23:30;33.579
02.01.2022;23:45;33.534
03.01.2022;00:00;35.099
03.01.2022;00:15;35.331
03.01.2022;00:30;30.270
03.01.2022;00:45;28.380
03.01.2022;01:00;28.110
03.01.2022;01:15;26.046
03.01.2022;01:30;28.785
03.01.2022;01:45;28.265
03.01.2022;02:00;29.121
03.01.2022;02:15;30.974
03.01.2022;02:30;33.395
03.01.2022;02:45;33.730
03.01.2022;03:00;28.472
03.01.2022;03:15;32.430
03.01.2022;03:30;30.131
03.01.2022;03:45;29.799
03.01.2022;04:00;32.225
03.01.2022;04:15;33.722
03.01.2022;04:30;33.371
03.01.2022;04:45;32.441
03.01.2022;05:00;34.419
03.01.2022;05:15;35.073
03.01.2022;05:30;35.412
03.01.2022;05:45;35.190
03.01.2022;06:00;35.028
03.01.2022;06:15;35.438
03.01.2022;06:30;37.245
03.01.2022;06:45;39.203
03.01.2022;07:00;37.937
03.01.2022;07:15;35.667
03.01.2022;07:30;36.655
03.01.2022;07:45;36.899
03.01.2022;08:00;36.044
03.01.2022;08:15;37.346
03.01.2022;08:30;36.311
03.01.2022;08:45;36.574
03.01.2022;09:00;37.779
03.01.2022;09:15;38.677
03.01.2022;09:30;37.357
03.01.2022;09:45;35.474
03.01.2022;10:00;35.970
03.01.2022;10:15;36.355
03.01.2022;10:30;39.492
03.01.2022;10:45;40.022
03.01.2022;11:00;37.800
03.01.2022;11:15;38.417
03.01.2022;11:30;40.546
03.01.2022;11:45;41.675
03.01.2022;12:00;40.471
03.01.2022;12:15;38.430
03.01.2022;12:30;37.413
03.01.2022;12:45;35.396
03.01.2022;13:00;35.829
03.01.2022;13:15;35.459
03.01.2022;13:30;38.945
03.01.2022;13:45;38.202
03.01.2022;14:00;41.158
03.01.2022;14:15;40.746
03.01.2022;14:30;40.303
03.01.2022;14:45;40.601
03.01.2022;15:00;38.157
03.01.2022;15:15;38.224
03.01.2022;15:30;37.086
03.01.2022;15:45;38.426
03.01.2022;16:00;38.660
03.01.2022;16:15;40.041
03.01.2022;16:30;39.126
03.01.2022;16:45;39.314
03.01.2022;17:00;40.348
03.01.2022;17:15;37.634
03.01.2022;17:30;37.999
03.01.2022;17:45;39.025
03.01.2022;18:00;39.835
03.01.2022;18:15;39.991
03.01.2022;18:30;40.397
03.01.2022;18:45;41.126
03.01.2022;19:00;41.202
03.01.2022;19:15;40.157
03.01.2022;19:30;38.435
03.01.2022;19:45;38.018
03.01.2022;20:00;37.061
03.01.2022;20:15;34.369
03.01.2022;20:30;35.556
03.01.2022;20:45;36.290
03.01.2022;21:00;35.575
03.01.2022;21:15;35.570
03.01.2022;21:30;34.947
03.01.2022;21:45;33.930
03.01.2022;22:00;32.811
03.01.2022;22:15;32.331
03.01.2022;22:30;33.436
03.01.2022;22:45;34.068
03.01.2022;23:00;34.488
03.01.2022;23:15;33.501
03.01.2022;23:30;33.361
03.01.2022;23:45;33.986
04.01.2022;00:00;33.510
04.01.2022;00:15;32.697
04.01.2022;00:30;32.691
04.01.2022;00:45;32.613
04.01.2022;01:00;33.533
04.01.2022;01:15;33.312
04.01.2022;01:30;32.660
04.01.2022;01:45;32.409
04.01.2022;02:00;31.330
04.01.2022;02:15;31.001
04.01.2022;02:30;29.699
04.01.2022;02:45;29.708
04.01.2022;03:00;29.649
04.01.2022;03:15;30.056
04.01.2022;03:30;29.693
04.01.2022;03:45;29.068
04.01.2022;04:00;28.814
04.01.2022;04:15;27.914
04.01.2022;04:30;28.401
04.01.2022;04:45;28.459
04.01.2022;05:00;28.771
04.01.2022;05:15;28.848
04.01.2022;05:30;28.851
04.01.2022;05:45;29.138
04.01.2022;06:00;29.858
04.01.2022;06:15;31.958
04.01.2022;06:30;31.897
04.01.2022;06:45;31.581
04.01.2022;07:00;32.794
04.01.2022;07:15;32.962
04.01.2022;07:30;33.442
04.01.2022;07:45;33.590
04.01.2022;08:00;34.454
04.01.2022;08:15;35.613
04.01.2022;08:30;36.081
04.01.2022;08:45;35.941
04.01.2022;09:00;35.766
04.01.2022;09:15;36.263
04.01.2022;09:30;36.397
04.01.2022;09:45;35.732
04.01.2022;10:00;35.275
04.01.2022;10:15;34.889
04.01.2022;10:30;34.807
04.01.2022;10:45;34.637
04.01.2022;11:00;34.309
04.01.2022;11:15;34.959
04.01.2022;11:30;35.613
04.01.2022;11:45;35.549
04.01.2022;12:00;35.234
04.01.2022;12:15;35.054
04.01.2022;12:30;34.731
04.01.2022;12:45;34.515
04.01.2022;13:00;34.543
04.01.2022;13:15;34.798
04.01.2022;13:30;34.526
04.01.2022;13:45;35.651
04.01.2022;14:00;34.625
04.01.2022;14:15;34.661
04.01.2022;14:30;36.013
04.01.2022;14:45;36.259
04.01.2022;15:00;36.751
04.01.2022;15:15;36.625
04.01.2022;15:30;37.204
04.01.2022;15:45;37.031
04.01.2022;16:00;37.760
04.01.2022;16:15;37.763
04.01.2022;16:30;38.347
04.01.2022;16:45;38.712
04.01.2022;17:00;38.805
04.01.2022;17:15;39.085
04.01.2022;17:30;39.617
04.01.2022;17:45;39.645
04.01.2022;18:00;39.522
04.01.2022;18:15;40.684
04.01.2022;18:30;41.649
04.01.2022;18:45;42.405
04.01.2022;19:00;42.921
04.01.2022;19:15;41.208
04.01.2022;19:30;41.448
04.01.2022;19:45;41.706
04.01.2022;20:00;42.083
04.01.2022;20:15;40.921
04.01.2022;20:30;39.254
04.01.2022;20:45;39.094
04.01.2022;21:00;38.797
04.01.2022;21:15;39.175
04.01.2022;21:30;39.191
04.01.2022;21:45;39.075
04.01.2022;22:00;38.759
04.01.2022;22:15;34.424
04.01.2022;22:30;34.148
04.01.2022;22:45;34.747
04.01.2022;23:00;33.939
04.01.2022;23:15;33.536
04.01.2022;23:30;33.400
04.01.2022;23:45;31.445
05.01.2022;00:00;31.119
05.01.2022;00:15;30.888
05.01.2022;00:30;30.549
05.01.2022;00:45;30.838
05.01.2022;01:00;32.524
05.01.2022;01:15;33.136
05.01.2022;01:30;32.328
05.01.2022;01:45;32.772
05.01.2022;02:00;32.430
05.01.2022;02:15;31.717
05.01.2022;02:30;31.504
05.01.2022;02:45;31.419
05.01.2022;03:00;32.530
05.01.2022;03:15;31.355
05.01.2022;03:30;31.965
05.01.2022;03:45;32.065
05.01.2022;04:00;31.431
05.01.2022;04:15;31.282
05.01.2022;04:30;31.722
05.01.2022;04:45;31.943
05.01.2022;05:00;32.038
05.01.2022;05:15;32.503
05.01.2022;05:30;32.405
05.01.2022;05:45;31.711
05.01.2022;06:00;32.992
05.01.2022;06:15;36.731
05.01.2022;06:30;36.571
05.01.2022;06:45;36.656
05.01.2022;07:00;37.021
05.01.2022;07:15;37.282
05.01.2022;07:30;36.944
05.01.2022;07:45;36.734
05.01.2022;08:00;37.453
05.01.2022;08:15;38.808
05.01.2022;08:30;39.179
05.01.2022;08:45;38.736
05.01.2022;09:00;38.954
05.01.2022;09:15;39.545
05.01.2022;09:30;40.406
05.01.2022;09:45;40.268
05.01.2022;10:00;38.310
05.01.2022;10:15;40.440
05.01.2022;10:30;43.170
05.01.2022;10:45;45.396
05.01.2022;11:00;44.306
05.01.2022;11:15;43.332
05.01.2022;11:30;41.185
05.01.2022;11:45;41.953
05.01.2022;12:00;43.076
05.01.2022;12:15;43.600
05.01.2022;12:30;43.732
05.01.2022;12:45;43.858
05.01.2022;13:00;47.298
05.01.2022;13:15;51.307
05.01.2022;13:30;52.351
05.01.2022;13:45;51.789
05.01.2022;14:00;51.628
05.01.2022;14:15;52.230
05.01.2022;14:30;51.596
05.01.2022;14:45;51.558
05.01.2022;15:00;49.910
05.01.2022;15:15;42.860
05.01.2022;15:30;42.081
05.01.2022;15:45;41.429
05.01.2022;16:00;42.049
05.01.2022;16:15;42.813
05.01.2022;16:30;43.797
05.01.2022;16:45;42.654
05.01.2022;17:00;44.462
05.01.2022;17:15;43.939
05.01.2022;17:30;43.374
05.01.2022;17:45;42.543
05.01.2022;18:00;44.472
05.01.2022;18:15;45.215
05.01.2022;18:30;45.338
05.01.2022;18:45;44.816
05.01.2022;19:00;46.345
05.01.2022;19:15;45.276
05.01.2022;19:30;44.799
05.01.2022;19:45;44.950
05.01.2022;20:00;45.150
05.01.2022;20:15;41.105
05.01.2022;20:30;39.090
05.01.2022;20:45;37.759
05.01.2022;21:00;38.922
05.01.2022;21:15;38.512
05.01.2022;21:30;38.180
05.01.2022;21:45;38.211
05.01.2022;22:00;39.179
05.01.2022;22:15;39.045
05.01.2022;22:30;39.394
05.01.2022;22:45;39.716
05.01.2022;23:00;39.474
05.01.2022;23:15;38.482
05.01.2022;23:30;38.478
05.01.2022;23:45;38.407
06.01.2022;00:00;38.173
06.01.2022;00:15;37.235
06.01.2022;00:30;37.841
06.01.2022;00:45;39.448
06.01.2022;01:00;38.532
06.01.2022;01:15;37.600
06.01.2022;01:30;38.095
06.01.2022;01:45;38.708
06.01.2022;02:00;40.706
06.01.2022;02:15;40.164
06.01.2022;02:30;39.180
06.01.2022;02:45;37.298
06.01.2022;03:00;37.283
06.01.2022;03:15;36.855
06.01.2022;03:30;38.366
06.01.2022;03:45;40.091
06.01.2022;04:00;38.930
06.01.2022;04:15;36.632
06.01.2022;04:30;37.124
06.01.2022;04:45;35.870
06.01.2022;05:00;36.352
06.01.2022;05:15;34.791
06.01.2022;05:30;36.628
06.01.2022;05:45;35.507
06.01.2022;06:00;35.103
06.01.2022;06:15;41.057
06.01.2022;06:30;41.982
06.01.2022;06:45;42.446
06.01.2022;07:00;42.935
06.01.2022;07:15;42.587
06.01.2022;07:30;41.685
06.01.2022;07:45;41.988
06.01.2022;08:00;42.125
06.01.2022;08:15;43.545
06.01.2022;08:30;45.191
06.01.2022;08:45;45.356
06.01.2022;09:00;45.281
06.01.2022;09:15;46.299
06.01.2022;09:30;46.072
06.01.2022;09:45;45.532
06.01.2022;10:00;43.562
06.01.2022;10:15;42.198
06.01.2022;10:30;46.437
06.01.2022;10:45;47.240
06.01.2022;11:00;47.326
06.01.2022;11:15;48.649
06.01.2022;11:30;47.928
06.01.2022;11:45;47.473
06.01.2022;12:00;46.985
06.01.2022;12:15;46.980
06.01.2022;12:30;46.428
06.01.2022;12:45;47.869
06.01.2022;13:00;45.498
06.01.2022;13:15;45.246
06.01.2022;13:30;44.763
06.01.2022;13:45;43.864
06.01.2022;14:00;41.646
06.01.2022;14:15;41.178
06.01.2022;14:30;40.474
06.01.2022;14:45;40.195
06.01.2022;15:00;39.706
06.01.2022;15:15;36.774
06.01.2022;15:30;35.985
06.01.2022;15:45;36.867
06.01.2022;16:00;38.516
06.01.2022;16:15;38.882
06.01.2022;16:30;39.772
06.01.2022;16:45;39.676
06.01.2022;17:00;39.349
06.01.2022;17:15;40.380
06.01.2022;17:30;39.432
06.01.2022;17:45;38.650
06.01.2022;18:00;38.811
06.01.2022;18:15;38.841
06.01.2022;18:30;38.512
06.01.2022;18:45;38.968
06.01.2022;19:00;39.201
06.01.2022;19:15;39.182
06.01.2022;19:30;39.220
06.01.2022;19:45;39.809
06.01.2022;20:00;39.685
06.01.2022;20:15;35.014
06.01.2022;20:30;33.951
06.01.2022;20:45;34.054
06.01.2022;21:00;35.004
06.01.2022;21:15;34.444
06.01.2022;21:30;34.072
06.01.2022;21:45;35.191
06.01.2022;22:00;35.748
06.01.2022;22:15;34.954
06.01.2022;22:30;35.213
06.01.2022;22:45;34.543
06.01.2022;23:00;35.054
06.01.2022;23:15;34.390
06.01.2022;23:30;34.212
06.01.2022;23:45;33.847
07.01.2022;00:00;33.824
07.01.2022;00:15;33.997
07.01.2022;00:30;33.906
07.01.2022;00:45;33.666
07.01.2022;01:00;32.681
07.01.2022;01:15;33.805
07.01.2022;01:30;33.443
07.01.2022;01:45;32.951
07.01.2022;02:00;33.490
07.01.2022;02:15;33.573
07.01.2022;02:30;33.520
07.01.2022;02:45;33.940
07.01.2022;03:00;33.820
07.01.2022;03:15;34.947
07.01.2022;03:30;36.307
07.01.2022;03:45;34.770
07.01.2022;04:00;34.661
07.01.2022;04:15;33.980
07.01.2022;04:30;32.034
07.01.2022;04:45;31.594
07.01.2022;05:00;32.031
07.01.2022;05:15;32.056
07.01.2022;05:30;30.789
07.01.2022;05:45;30.386
07.01.2022;06:00;30.571
07.01.2022;06:15;30.795
07.01.2022;06:30;31.288
07.01.2022;06:45;32.298
07.01.2022;07:00;32.753
07.01.2022;07:15;32.453
07.01.2022;07:30;32.590
07.01.2022;07:45;33.071
07.01.2022;08:00;35.392
07.01.2022;08:15;38.280
07.01.2022;08:30;40.224
07.01.2022;08:45;40.580
07.01.2022;09:00;40.655
07.01.2022;09:15;41.301
07.01.2022;09:30;40.853
07.01.2022;09:45;41.761
07.01.2022;10:00;42.926
07.01.2022;10:15;43.478
07.01.2022;10:30;42.673
07.01.2022;10:45;44.158
07.01.2022;11:00;44.698
07.01.2022;11:15;46.068
07.01.2022;11:30;46.759
07.01.2022;11:45;45.171
07.01.2022;12:00;44.585
07.01.2022;12:15;44.069
07.01.2022;12:30;44.260
07.01.2022;12:45;44.333
07.01.2022;13:00;43.994
07.01.2022;13:15;43.368
07.01.2022;13:30;41.892
07.01.2022;13:45;41.216
07.01.2022;14:00;42.469
07.01.2022;14:15;42.152
07.01.2022;14:30;42.861
07.01.2022;14:45;42.802
07.01.2022;15:00;43.634
07.01.2022;15:15;42.825
07.01.2022;15:30;43.938
07.01.2022;15:45;44.732
07.01.2022;16:00;43.601
07.01.2022;16:15;43.590
07.01.2022;16:30;42.441
07.01.2022;16:45;42.652
07.01.2022;17:00;42.594
07.01.2022;17:15;42.273
07.01.2022;17:30;42.680
07.01.2022;17:45;42.149
07.01.2022;18:00;41.445
07.01.2022;18:15;41.549
07.01.2022;18:30;41.537
07.01.2022;18:45;41.317
07.01.2022;19:00;41.177
07.01.2022;19:15;41.573
07.01.2022;19:30;40.846
07.01.2022;19:45;40.614
07.01.2022;20:00;41.208
07.01.2022;20:15;34.860
07.01.2022;20:30;33.991
07.01.2022;20:45;34.200
07.01.2022;21:00;34.006
07.01.2022;21:15;35.192
07.01.2022;21:30;34.734
07.01.2022;21:45;34.291
07.01.2022;22:00;34.197
07.01.2022;22:15;33.702
07.01.2022;22:30;34.066
07.01.2022;22:45;34.086
07.01.2022;23:00;34.103
07.01.2022;23:15;33.083
07.01.2022;23:30;33.276
07.01.2022;23:45;33.544
08.01.2022;00:00;34.072
08.01.2022;00:15;33.255
08.01.2022;00:30;33.697
08.01.2022;00:45;34.095
08.01.2022;01:00;32.542
08.01.2022;01:15;32.130
08.01.2022;01:30;31.996
08.01.2022;01:45;32.018
08.01.2022;02:00;32.944
08.01.2022;02:15;33.966
08.01.2022;02:30;33.794
08.01.2022;02:45;33.012
08.01.2022;03:00;32.492
08.01.2022;03:15;32.863
08.01.2022;03:30;33.011
08.01.2022;03:45;33.526
08.01.2022;04:00;34.085
08.01.2022;04:15;33.189
08.01.2022;04:30;32.050
08.01.2022;04:45;32.592
08.01.2022;05:00;32.167
08.01.2022;05:15;32.512
08.01.2022;05:30;31.493
08.01.2022;05:45;31.318
08.01.2022;06:00;32.317
08.01.2022;06:15;31.044
08.01.2022;06:30;32.093
08.01.2022;06:45;31.318
08.01.2022;07:00;32.488
08.01.2022;07:15;32.382
08.01.2022;07:30;33.111
08.01.2022;07:45;32.771
08.01.2022;08:00;35.702
08.01.2022;08:15;39.105
08.01.2022;08:30;40.310
08.01.2022;08:45;41.090
08.01.2022;09:00;39.705
08.01.2022;09:15;39.758
08.01.2022;09:30;38.827
08.01.2022;09:45;38.331
08.01.2022;10:00;38.861
08.01.2022;10:15;40.043
08.01.2022;10:30;40.095
08.01.2022;10:45;41.457
08.01.2022;11:00;41.406
08.01.2022;11:15;40.755
08.01.2022;11:30;41.740
08.01.2022;11:45;41.630
08.01.2022;12:00;42.682
08.01.2022;12:15;43.132
08.01.2022;12:30;43.764
08.01.2022;12:45;43.932
08.01.2022;13:00;43.102
08.01.2022;13:15;40.793
08.01.2022;13:30;42.034
08.01.2022;13:45;41.600
08.01.2022;14:00;40.816
08.01.2022;14:15;40.361
08.01.2022;14:30;39.699
08.01.2022;14:45;40.102
08.01.2022;15:00;39.327
08.01.2022;15:15;38.448
08.01.2022;15:30;39.847
08.01.2022;15:45;40.446
08.01.2022;16:00;40.595
08.01.2022;16:15;39.632
08.01.2022;16:30;38.771
08.01.2022;16:45;39.765
08.01.2022;17:00;40.398
08.01.2022;17:15;40.576
08.01.2022;17:30;41.284
08.01.2022;17:45;39.778
08.01.2022;18:00;40.566
08.01.2022;18:15;40.648
08.01.2022;18:30;40.303
08.01.2022;18:45;41.975
08.01.2022;19:00;41.465
08.01.2022;19:15;40.269
08.01.2022;19:30;41.433
08.01.2022;19:45;41.127
08.01.2022;20:00;41.388
08.01.2022;20:15;36.131
08.01.2022;20:30;34.300
08.01.2022;20:45;34.012
08.01.2022;21:00;35.160
08.01.2022;21:15;36.313
08.01.2022;21:30;37.424
08.01.2022;21:45;36.513
08.01.2022;22:00;36.236
08.01.2022;22:15;37.115
08.01.2022;22:30;36.903
08.01.2022;22:45;37.230
08.01.2022;23:00;37.634
08.01.2022;23:15;36.743
08.01.2022;23:30;36.863
08.01.2022;23:45;36.978
09.01.2022;00:00;37.538
09.01.2022;00:15;38.073
09.01.2022;00:30;37.987
09.01.2022;00:45;36.230
09.01.2022;01:00;36.050
09.01.2022;01:15;37.011
09.01.2022;01:30;37.079
09.01.2022;01:45;38.120
09.01.2022;02:00;37.998
09.01.2022;02:15;37.619
09.01.2022;02:30;38.565
09.01.2022;02:45;38.469
09.01.2022;03:00;37.109
09.01.2022;03:15;36.794
09.01.2022;03:30;37.600
09.01.2022;03:45;37.944
09.01.2022;04:00;38.277
09.01.2022;04:15;37.228
09.01.2022;04:30;37.319
09.01.2022;04:45;36.614
09.01.2022;05:00;36.914
09.01.2022;05:15;38.339
09.01.2022;05:30;38.512
09.01.2022;05:45;38.446
09.01.2022;06:00;38.104
09.01.2022;06:15;38.199
09.01.2022;06:30;38.355
09.01.2022;06:45;37.817
09.01.2022;07:00;38.492
09.01.2022;07:15;40.112
09.01.2022;07:30;40.626
09.01.2022;07:45;39.548
09.01.2022;08:00;37.880
09.01.2022;08:15;39.191
09.01.2022;08:30;38.946
09.01.2022;08:45;38.355
09.01.2022;09:00;38.361
09.01.2022;09:15;38.617
09.01.2022;09:30;38.476
09.01.2022;09:45;37.077
09.01.2022;10:00;38.356
09.01.2022;10:15;38.396
09.01.2022;10:30;37.897
09.01.2022;10:45;37.840
09.01.2022;11:00;36.917
09.01.2022;11:15;35.671
09.01.2022;11:30;37.061
09.01.2022;11:45;36.538
09.01.2022;12:00;35.683
09.01.2022;12:15;35.040
09.01.2022;12:30;34.757
09.01.2022;12:45;33.814
09.01.2022;13:00;34.007
09.01.2022;13:15;34.171
09.01.2022;13:30;34.027
09.01.2022;13:45;33.486
09.01.2022;14:00;32.721
09.01.2022;14:15;33.160
09.01.2022;14:30;32.937
09.01.2022;14:45;32.934
09.01.2022;15:00;33.024
09.01.2022;15:15;33.348
09.01.2022;15:30;32.955
09.01.2022;15:45;32.944
09.01.2022;16:00;33.433
09.01.2022;16:15;36.815
09.01.2022;16:30;37.126
09.01.2022;16:45;36.883
09.01.2022;17:00;37.167
09.01.2022;17:15;37.335
09.01.2022;17:30;37.391
09.01.2022;17:45;37.378
09.01.2022;18:00;37.041
09.01.2022;18:15;37.599
09.01.2022;18:30;37.250
09.01.2022;18:45;37.001
09.01.2022;19:00;36.188
09.01.2022;19:15;35.328
09.01.2022;19:30;34.089
09.01.2022;19:45;31.309
09.01.2022;20:00;30.680
09.01.2022;20:15;26.863
09.01.2022;20:30;26.111
09.01.2022;20:45;26.406
09.01.2022;21:00;26.142
09.01.2022;21:15;26.379
09.01.2022;21:30;26.418
09.01.2022;21:45;26.741
09.01.2022;22:00;27.036
09.01.2022;22:15;27.643
09.01.2022;22:30;27.927
09.01.2022;22:45;28.470
09.01.2022;23:00;28.461
09.01.2022;23:15;26.769
09.01.2022;23:30;25.879
09.01.2022;23:45;24.863
10.01.2022;00:00;25.066
10.01.2022;00:15;25.889
10.01.2022;00:30;28.038
10.01.2022;00:45;28.184
10.01.2022;01:00;27.742
10.01.2022;01:15;27.405
10.01.2022;01:30;27.476
10.01.2022;01:45;28.328
10.01.2022;02:00;28.475
10.01.2022;02:15;28.459
10.01.2022;02:30;27.901
10.01.2022;02:45;27.497
10.01.2022;03:00;27.803
10.01.2022;03:15;28.082
10.01.2022;03:30;28.214
10.01.2022;03:45;28.386
10.01.2022;04:00;27.217
10.01.2022;04:15;27.035
10.01.2022;04:30;28.308
10.01.2022;04:45;28.535
10.01.2022;05:00;28.022
10.01.2022;05:15;27.446
10.01.2022;05:30;27.000
10.01.2022;05:45;26.529
10.01.2022;06:00;26.642
10.01.2022;06:15;27.114
10.01.2022;06:30;26.671
10.01.2022;06:45;25.605
10.01.2022;07:00;25.652
10.01.2022;07:15;27.728
10.01.2022;07:30;29.316
10.01.2022;07:45;29.415
10.01.2022;08:00;28.553
10.01.2022;08:15;27.865
10.01.2022;08:30;25.952
10.01.2022;08:45;25.193
10.01.2022;09:00;25.247
10.01.2022;09:15;25.175
10.01.2022;09:30;25.763
10.01.2022;09:45;26.623
10.01.2022;10:00;26.677
10.01.2022;10:15;29.554
10.01.2022;10:30;30.566
10.01.2022;10:45;30.583
10.01.2022;11:00;30.372
10.01.2022;11:15;30.974
10.01.2022;11:30;31.021
10.01.2022;11:45;31.242
10.01.2022;12:00;31.931
10.01.2022;12:15;31.844
10.01.2022;12:30;30.715
10.01.2022;12:45;30.750
10.01.2022;13:00;31.959
10.01.2022;13:15;32.147
10.01.2022;13:30;32.651
10.01.2022;13:45;33.595
10.01.2022;14:00;33.087
10.01.2022;14:15;33.546
10.01.2022;14:30;34.259
10.01.2022;14:45;34.152
10.01.2022;15:00;34.374
10.01.2022;15:15;34.245
10.01.2022;15:30;34.746
10.01.2022;15:45;34.656
10.01.2022;16:00;34.724
10.01.2022;16:15;35.489
10.01.2022;16:30;35.307
10.01.2022;16:45;34.762
10.01.2022;17:00;34.995
10.01.2022;17:15;35.306
10.01.2022;17:30;35.932
10.01.2022;17:45;35.954
10.01.2022;18:00;35.199
10.01.2022;18:15;35.535
10.01.2022;18:30;35.093
10.01.2022;18:45;34.984
10.01.2022;19:00;35.994
10.01.2022;19:15;36.444
10.01.2022;19:30;36.258
10.01.2022;19:45;36.048
10.01.2022;20:00;35.058
10.01.2022;20:15;32.243
10.01.2022;20:30;32.421
10.01.2022;20:45;32.671
10.01.2022;21:00;33.058
10.01.2022;21:15;32.760
10.01.2022;21:30;32.139
10.01.2022;21:45;32.738
10.01.2022;22:00;33.267
10.01.2022;22:15;33.126
10.01.2022;22:30;33.314